Location: Morisset
(33.1080°S, 151.4871°E)
Time: 08:25:12
(UTC+00:00)

KORONAS-FOTON - Pass Details

Date: 29 October 2020
Orbit: 504 x 533 km, 82.4° (Epoch: 27 November)

Event Time Altitude Azimuth Distance (km) Brightness Sun altitude
Rises 16:57:29 0° 189° (S) 2,700 7.8 -23.2°
Reaches altitude 10° 16:59:39 10° 191° (S) 1,805 6.8 -22.8°
Enters shadow 17:03:15 67° 228° (SW) 588 3.9 -22.2°
